SCP
1 1 1 1 1 1 1 1 1 1 0 0 0 0 0 0 0 0 0 0 0 0 0 0 0 0 0 0 0 0 1 1 1 1 1 1 1 1
1 1 1 1 1 1 1 1 1 1 1 0 0 0 0 0 0 0 0 0 0 0 0 0 0 0 0 0 0 0 0 1 1 1 1 1 1 1
1 1 1 1 1 1 1 1 1 1 1 1 1 1 0 0 0 0 0 0 0 0 0 0 0 0 0 0 0 0 0 0 0 0 1 1 0 0
1 1 1 1 1 1 1 1 1 1 1 1 1 1 1 0 0 0 0 1 0 0 0 0 0 0 0 0 0 0 0 0 0 0 0 0 0 0
0 1 1 1 1 1 1 1 1 1 1 1 1 1 1 1 1 1 1 1 0 0 0 0 0 0 0 0 0 0 0 0 0 0 0 0 0 0
0 0 1 1 1 1 1 1 1 1 1 1 1 1 1 1 1 1 1 0 0 0 0 0 0 0 0 0 0 0 0 0 0 0 0 0 0 0
0 0 1 1 1 0 1 1 1 1 1 1 1 1 1 1 1 0 0 0 0 0 0 0 0 0 0 0 0 0 0 0 0 0 0 0 0 0
1 1 1 1 0 0 0 0 1 1 1 1 1 1 1 1 0 0 0 0 0 0 0 0 0 0 0 0 0 0 0 0 0 0 0 0 0 0
1 1 1 1 0 1 0 0 0 0 0 0 1 1 1 0 0 0 0 0 0 0 0 0 0 0 0 0 0 0 0 0 0 0 0 0 0 0
1 1 1 1 1 1 1 1 1 1 0 0 0 0 0 0 0 0 0 0 0 0 0 0 0 0 0 0 0 0 0 0 0 0 0 0 0 0
1 1 1 1 1 1 1 1 1 1 1 0 0 0 0 0 0 0 0 0 0 0 0 0 0 0 0 0 0 0 0 0 0 0 0 0 0 0
1 1 1 1 0 0 1 1 1 1 1 1 0 0 0 0 0 0 0 0 0 0 0 0 0 0 0 0 0 0 0 0 0 0 0 0 0 0
1 1 1 0 0 0 1 1 1 1 1 1 1 1 0 0 0 0 0 0 0 0 0 0 0 0 0 0 0 0 0 0 0 0 0 0 0 0
1 1 1 0 0 0 0 0 0 0 1 1 1 1 1 1 1 1 1 0 0 0 0 0 0 0 0 0 0 0 0 0 0 0 0 0 0 0
1 1 0 0 0 0 0 0 0 0 1 1 1 1 1 1 1 1 1 1 0 0 0 0 0 0 0 0 0 0 0 0 0 0 0 0 0 0
1 0 0 0 0 0 0 0 0 0 1 1 1 1 1 1 1 1 0 0 0 0 0 0 0 0 0 0 0 0 0 0 0 0 0 0 0 0
0 0 0 1 1 1 1 1 1 1 1 1 1 1 1 1 1 0 0 0 0 0 0 0 0 0 0 0 0 0 0 0 0 0 0 0 0 0
0 1 1 1 1 1 1 1 1 0 1 1 1 1 1 1 1 0 0 0 0 0 0 0 0 0 0 0 0 0 0 0 0 0 0 0 0 0
0 1 1 1 1 1 1 0 0 0 0 0 1 1 1 0 0 0 0 0 0 0 0 0 0 0 0 0 0 0 0 0 0 0 0 0 0 0
0 1 1 1 1 1 1 1 1 1 1 1 0 0 0 0 0 0 0 0 0 0 0 0 0 0 0 0 0 0 0 0 0 0 0 0 0 0
0 0 0 0 1 1 1 1 1 1 1 1 0 0 0 0 0 0 0 0 0 0 0 0 0 0 0 0 0 0 0 0 0 0 0 0 0 0
0 0 0 0 0 0 0 1 1 1 1 0 0 0 0 0 0 0 0 0 0 0 0 0 0 0 0 0 0 0 0 0 0 0 0 0 0 0
0 0 0 0 0 0 0 0 0 0 0 0 0 0 0 0 0 0 0 0 0 0 0 0 0 0 0 0 0 0 0 0 0 0 0 0 0 0
Wind_Speed
3 3 3 2 3 3 3 3 3 2 1 2 1 1 1 0 1 2 2 5 2 2 2 3 3 4 4 4 4 4 4 3 3 3 4 4 4 4
2 3 3 2 2 2 3 3 3 3 1 1 1 1 1 1 2 1 1 5 2 1 1 2 3 3 3 4 4 4 4 4 3 3 3 4 4 3
4 4 4 3 3 3 3 3 3 3 2 1 1 1 2 2 3 2 2 2 3 3 2 2 2 2 2 2 3 3 3 3 3 3 3 2 2 2
5 5 5 3 5 4 3 4 3 4 3 3 2 2 3 2 2 2 2 2 1 4 3 2 2 2 2 2 2 2 2 2 2 1 1 1 1 1
6 6 5 5 5 4 5 5 4 4 3 3 2 2 2 2 3 3 3 2 2 3 4 4 3 3 3 3 3 2 2 1 1 1 1 1 1 1
6 6 6 6 6 6 5 5 4 4 4 4 3 3 3 3 3 3 3 3 3 2 2 2 3 4 5 4 4 4 3 3 3 2 2 2 2 2
6 6 5 4 4 4 4 5 5 5 4 4 4 4 4 4 4 4 3 3 3 3 2 3 3 4 5 6 6 5 5 5 4 4 4 3 3 3
6 6 5 5 5 6 6 6 6 6 6 5 5 5 5 5 4 4 4 4 3 3 3 3 3 3 3 4 4 6 6 5 5 5 5 4 4 4
6 5 4 4 5 6 7 9 8 8 8 7 7 6 5 5 5 6 5 5 4 2 3 3 3 4 3 2 6 6 6 6 6 6 6 5 5 5
6 6 6 6 5 5 5 6 7 8 8 8 7 6 5 4 5 5 5 5 4 3 4 4 4 4 3 3 6 7 7 6 6 6 6 6 5 5
7 6 6 6 4 5 6 6 6 5 5 6 5 4 2 2 3 4 5 5 5 4 4 4 4 4 4 4 5 8 8 7 7 7 7 7 7 7
5 5 6 6 4 6 7 6 6 5 4 5 6 6 6 6 7 7 6 6 5 4 5 4 4 4 4 4 4 5 6 8 8 8 8 7 7 7
4 4 3 4 5 7 7 6 5 4 5 5 4 4 4 4 6 6 6 6 6 5 3 5 4 5 5 3 3 4 5 5 6 7 8 9 8 8
4 4 3 4 5 6 6 4 4 4 4 4 4 4 4 4 4 5 6 6 6 6 4 5 5 5 5 5 4 4 4 5 5 6 6 8 10 11
4 3 3 3 5 5 6 5 5 5 4 5 5 4 4 4 4 3 4 4 5 5 4 5 5 5 6 6 5 4 4 5 6 6 5 5 6 7
4 3 4 5 5 4 4 5 5 4 5 5 4 4 3 3 4 4 4 4 4 4 4 5 6 6 6 7 6 6 5 4 4 6 6 6 6 7
3 3 3 3 4 4 4 4 4 4 5 5 4 4 4 4 4 4 4 4 5 4 4 3 4 5 6 6 7 7 6 5 5 5 5 6 7 7
3 3 3 3 3 3 4 4 4 4 4 4 5 5 5 5 4 4 5 5 5 5 4 3 3 3 4 5 7 8 6 6 5 5 6 6 7 7
4 4 4 4 4 4 4 4 4 4 4 4 5 5 5 5 5 5 5 5 5 5 5 4 4 5 6 7 5 8 7 5 5 5 6 6 7 6
4 4 4 4 4 4 4 4 4 4 4 4 5 5 5 5 5 5 5 6 6 6 5 5 5 6 7 7 5 4 9 7 6 6 6 6 6 6
4 4 4 4 4 4 4 4 4 4 4 4 4 5 5 5 5 6 6 6 7 6 7 6 5 6 5 4 5 5 5 8 7 6 6 6 6 6
4 4 4 4 4 4 4 4 4 4 5 5 5 5 5 5 6 6 6 6 6 7 7 5 4 4 5 7 8 7 6 5 7 9 9 8 6 5
4 4 4 4 4 4 4 5 6 5 5 5 5 5 5 5 5 5 6 6 6 6 6 5 5 5 6 7 7 7 7 7 5 5 7 9 10 9
Wind_Direction
241 233 233 230 229 228 231 242 263 266 215 144 165 159 192 168 130 204 147 103 93 74 58 68 76 78 84 84 85 80 76 75 76 85 86 81 84 80
240 248 235 227 222 224 228 235 257 272 277 131 168 167 178 193 157 223 105 115 131 115 86 102 106 98 92 88 85 85 81 77 72 73 76 72 79 72
223 229 229 224 217 213 217 224 233 246 247 228 184 183 196 207 172 204 201 206 164 151 147 138 135 130 119 108 102 95 87 82 83 77 77 82 76 66
233 232 231 215 225 221 214 219 220 229 239 241 199 194 213 215 207 211 212 213 206 136 155 168 169 172 165 154 133 121 111 91 95 90 83 92 93 50
233 237 236 227 225 219 220 225 220 216 229 240 223 187 213 208 211 216 220 219 226 164 174 189 195 202 194 188 179 174 171 164 156 168 219 254 262 266
238 241 241 235 236 229 223 227 222 216 216 227 225 208 209 206 216 220 220 208 221 212 191 191 188 201 203 201 199 199 200 204 207 211 221 243 262 258
239 245 247 248 261 254 246 234 222 220 214 220 224 218 215 205 217 217 222 218 219 219 213 210 205 213 205 205 205 206 208 213 217 217 219 228 237 248
240 243 236 225 226 222 234 247 247 235 225 222 229 230 230 221 219 221 222 223 226 199 221 229 220 225 221 215 172 185 203 210 213 216 218 222 231 242
245 245 239 230 226 230 215 218 229 239 247 245 239 242 240 228 214 218 223 231 240 208 214 234 222 232 228 195 163 189 204 212 213 214 217 220 228 236
241 244 240 234 220 230 232 229 230 225 225 235 247 253 254 243 228 231 228 230 239 214 210 243 229 230 227 211 173 193 207 213 218 220 220 224 229 233
241 239 240 239 214 218 230 234 236 232 218 230 259 268 287 260 244 231 219 218 230 222 208 234 238 234 233 223 189 192 205 212 220 223 225 227 229 231
242 237 229 240 213 208 229 234 236 236 229 218 222 222 225 214 215 227 227 229 234 229 197 216 229 226 235 219 211 200 207 210 217 222 225 229 232 235
242 235 224 202 213 222 237 244 244 250 242 236 231 225 222 218 214 221 228 236 239 239 198 201 229 229 246 236 221 219 219 218 215 218 219 219 221 231
255 248 225 180 206 221 230 240 236 242 238 234 229 227 224 222 223 223 226 233 245 251 225 212 229 232 238 243 239 220 221 226 228 229 225 209 214 220
258 272 261 218 222 222 218 213 217 229 230 231 232 232 234 233 227 224 229 234 244 244 238 226 232 235 242 249 249 239 237 230 225 233 234 227 223 220
249 232 217 222 231 238 223 210 222 228 232 237 239 237 233 229 227 223 221 217 224 230 228 231 235 237 243 250 255 251 243 239 227 232 237 238 236 230
268 249 236 227 224 221 221 224 228 223 226 233 234 232 229 229 228 224 227 224 228 233 224 222 232 235 247 254 251 251 248 245 241 234 233 240 240 237
250 244 239 237 239 237 234 230 230 232 232 233 235 236 235 235 233 227 225 229 234 238 236 223 214 223 237 245 241 250 247 244 243 239 236 241 244 238
234 242 243 241 243 243 243 244 242 238 237 236 236 238 240 239 238 235 231 232 237 241 239 228 222 225 239 251 228 213 241 246 242 240 240 243 251 250
242 245 243 242 243 244 243 247 252 247 241 238 237 237 238 238 237 237 236 236 238 240 238 229 227 231 243 260 268 245 222 238 240 244 247 250 258 265
245 249 253 252 248 246 245 244 246 247 244 243 242 241 239 237 239 241 241 239 243 243 242 239 237 239 252 262 260 254 236 226 244 248 248 249 253 252
255 253 253 254 252 248 246 243 242 240 239 241 241 240 240 243 245 245 246 244 241 245 251 252 237 227 232 239 250 258 257 245 234 238 249 253 253 250
263 267 264 254 248 246 244 243 244 244 241 240 242 242 240 241 244 247 249 250 250 249 251 250 241 235 239 244 251 254 256 255 252 244 241 233 241 262